DW4393 Weather Reports


Display with metric or nautical units.
time (UTC)temp
F
wind
direction
speed
MPH
gust
MPH
rain 1hr
in
rain 24hr
in
rain mn
in
humidity
%
barometer
mb
20260502224303 66 340 1.0 3.0 0.00 0.00 0.00 41 1012.2
20260502223802 66 171 1.0 3.0 0.00 0.00 0.00 40 1012.2
20260502223303 67 222 1.0 3.0 0.00 0.00 0.00 41 1012.2
20260502221803 67 69 1.0 6.0 0.00 0.00 0.00 44 1011.9
20260502221302 68 271 2.0 3.0 0.00 0.00 0.00 42 1011.9
20260502220802 68 77 0.0 2.0 0.00 0.00 0.00 48 1011.8
20260502220302 68 72 1.0 3.0 0.00 0.00 0.00 46 1011.7
20260502214302 68 6 1.0 3.0 0.00 0.00 0.00 45 1011.1
20260502213802 68 199 1.0 3.0 0.00 0.00 0.00 44 1011.2
20260502211802 69 353 1.0 3.0 0.00 0.00 0.00 44 1011.1
20260502210803 69 96 0.0 5.0 0.00 0.00 0.00 45 1011.0
20260502210303 69 308 1.0 5.0 0.00 0.00 0.00 47 1010.9
20260502204803 69 60 1.0 3.0 0.00 0.00 0.00 44 1010.7
20260502204302 69 39 1.0 3.0 0.00 0.00 0.00 49 1010.8
20260502203803 69 263 0.0 1.0 0.00 0.00 0.00 51 1010.7
20260502203303 70 263 0.0 3.0 0.00 0.00 0.00 51 1010.9
20260502201804 70 72 1.0 3.0 0.00 0.00 0.00 48 1010.9
20260502201302 71 210 1.0 3.0 0.00 0.00 0.00 45 1010.8
20260502200802 72 335 0.0 3.0 0.00 0.00 0.00 51 1010.8
20260502200303 71 176 0.0 3.0 0.00 0.00 0.00 50 1010.9
20260502194803 69 61 0.0 1.0 0.00 0.00 0.00 52 1011.1
20260502193803 70 215 1.0 2.0 0.00 0.00 0.00 49 1011.2
20260502193303 71 157 1.0 3.0 0.00 0.00 0.00 50 1011.1
20260502191303 71 219 2.0 6.0 0.00 0.00 0.00 51 1011.2
20260502190303 71 232 2.0 3.0 0.00 0.00 0.00 57 1011.2
20260502184803 69 260 1.0 2.0 0.00 0.00 0.00 53 1011.3
20260502183803 68 144 1.0 1.0 0.00 0.00 0.00 58 1011.4
20260502183303 69 80 1.0 5.0 0.00 0.00 0.00 54 1011.4
20260502181802 68 222 1.0 3.0 0.00 0.00 0.00 55 1011.5
20260502180803 70 175 1.0 2.0 0.00 0.00 0.00 56 1011.6
20260502180304 69 196 1.0 6.0 0.00 0.00 0.00 60 1011.6
20260502170303 67 246 0.0 2.0 0.00 0.00 0.00 58 1012.1
20260502163803 65 69 0.0 2.0 0.00 0.00 0.00 67 1012.3
20260502163303 64 199 1.0 2.0 0.00 0.00 0.00 70 1012.4
20260502161803 63 78 0.0 0.0 0.00 0.00 0.00 75 1012.5
20260502161303 63 78 0.0 1.0 0.00 0.00 0.00 70 1012.6
20260502160803 63 65 0.0 1.0 0.00 0.00 0.00 73 1012.6
20260502160303 63 309 0.0 2.0 0.00 0.00 0.00 70 1012.5
20260502151803 61 305 0.0 1.0 0.00 0.00 0.00 80 1012.6
20260502151304 61 289 0.0 1.0 0.00 0.00 0.00 80 1012.4
20260502150803 61 289 0.0 1.0 0.00 0.00 0.00 80 1012.6
20260502150303 61 327 0.0 2.0 0.00 0.00 0.00 82 1012.6
20260502130303 55 96 0.0 0.0 0.00 0.00 0.00 94 1012.0
20260502123803 55 96 0.0 0.0 0.00 0.00 0.00 94 1012.1
20260502123303 55 96 0.0 0.0 0.00 0.00 0.00 94 1011.9
20260502121803 55 96 0.0 0.0 0.00 0.00 0.00 94 1011.5
20260502120803 55 96 0.0 0.0 0.00 0.00 0.00 94 1012.1
20260502120304 55 96 0.0 0.0 0.00 0.00 0.00 94 1012.0
20260502114803 55 96 0.0 0.0 0.00 0.00 0.00 94 1011.4
20260502114303 55 96 0.0 0.0 0.00 0.00 0.00 94 1011.3
20260502113803 55 96 0.0 0.0 0.00 0.00 0.00 94 1011.6
20260502113303 55 96 0.0 0.0 0.00 0.00 0.00 94 1011.6
20260502111803 55 96 0.0 0.0 0.00 0.00 0.00 94 1012.2
20260502111303 54 96 0.0 0.0 0.00 0.00 0.00 94 1012.4
20260502110803 54 96 0.0 0.0 0.00 0.00 0.00 94 1012.2
20260502110303 54 96 0.0 0.0 0.00 0.00 0.00 94 1012.2
20260502104803 54 96 0.0 0.0 0.00 0.00 0.00 94 1012.0
20260502104303 54 96 0.0 0.0 0.00 0.00 0.00 94 1011.7
20260502103803 54 96 0.0 0.0 0.00 0.00 0.00 94 1011.4
20260502103304 54 96 0.0 0.0 0.00 0.00 0.00 93 1011.4
20260502101303 55 96 0.0 0.0 0.00 0.00 0.00 94 1010.9
20260502100303 55 96 0.0 0.0 0.00 0.00 0.00 94 1010.8
20260502091303 55 96 0.0 0.0 0.00 0.00 0.00 93 1011.0
20260502090803 55 96 0.0 0.0 0.00 0.00 0.00 93 1010.9
20260502071304 56 96 0.0 0.0 0.00 0.00 0.00 90 1011.8
20260502064803 56 96 0.0 0.0 0.00 0.00 0.00 91 1012.1
20260502064303 56 96 0.0 0.0 0.00 0.00 0.00 91 1012.0
20260502063804 56 96 0.0 0.0 0.00 0.00 0.00 91 1012.1
20260502063303 57 96 0.0 0.0 0.00 0.00 0.00 91 1012.1
20260502061804 57 96 0.0 0.0 0.00 0.00 0.00 91 1012.1
20260502060804 57 96 0.0 0.0 0.00 0.00 0.00 91 1012.1
20260502054804 57 96 0.0 0.0 0.00 0.00 0.00 90 1012.4
20260502054303 57 96 0.0 0.0 0.00 0.00 0.00 90 1012.3
20260502053803 57 96 0.0 0.0 0.00 0.00 0.00 90 1012.4
20260502053303 57 96 0.0 0.0 0.00 0.00 0.00 90 1012.3
20260502051803 57 96 0.0 0.0 0.00 0.00 0.00 90 1012.3
20260502051304 57 96 0.0 0.0 0.00 0.00 0.00 90 1012.3
20260502050803 57 96 0.0 0.0 0.00 0.00 0.00 90 1012.3
20260502050303 57 96 0.0 0.0 0.00 0.00 0.00 90 1012.4
20260502044804 57 96 0.0 0.0 0.00 0.00 0.00 90 1012.4
20260502044303 57 96 0.0 0.0 0.00 0.00 0.00 90 1012.5
20260502043803 57 96 0.0 0.0 0.00 0.00 0.00 90 1012.4
20260502043304 57 96 0.0 0.0 0.00 0.00 0.00 90 1012.4
20260502041803 57 96 0.0 0.0 0.00 0.00 0.00 90 1012.8
20260502041304 57 96 0.0 0.0 0.00 0.00 0.00 90 1012.9
20260502040822 57 96 0.0 0.0 0.00 0.00 0.00 90 1012.9
20260502040304 57 96 0.0 0.0 0.00 0.00 0.00 90 1012.9
20260502034803 58 96 0.0 0.0 0.00 0.00 0.00 89 1013.0
20260502034304 58 96 0.0 0.0 0.00 0.00 0.00 90 1013.0
20260502033804 58 96 0.0 0.0 0.00 0.00 0.00 89 1012.9
20260502033303 58 96 0.0 0.0 0.00 0.00 0.00 89 1012.8
20260502031803 58 96 0.0 0.0 0.00 0.00 0.00 89 1013.0
20260502031303 58 96 0.0 0.0 0.00 0.00 0.00 89 1013.0
20260502030804 58 96 0.0 0.0 0.00 0.00 0.00 89 1013.0
20260502030303 58 96 0.0 0.0 0.00 0.00 0.00 88 1013.0
20260502024803 58 96 0.0 0.0 0.00 0.00 0.00 88 1013.2
20260502024304 58 96 0.0 0.0 0.00 0.00 0.00 88 1013.3
20260502023804 58 96 0.0 0.0 0.00 0.00 0.00 88 1013.2
20260502023303 58 96 0.0 0.0 0.00 0.00 0.00 88 1013.2
20260502021804 58 96 0.0 0.0 0.00 0.00 0.00 89 1013.0
20260502020803 58 96 0.0 0.0 0.00 0.00 0.00 89 1013.0
20260502020304 58 96 0.0 0.0 0.00 0.00 0.00 89 1012.9
20260502014804 58 96 0.0 0.0 0.00 0.00 0.00 89 1012.7
20260502013304 59 96 0.0 0.0 0.00 0.00 0.00 88 1012.6
20260502011804 59 96 0.0 0.0 0.00 0.00 0.00 87 1012.6
20260502011304 59 96 0.0 0.0 0.00 0.00 0.00 87 1012.4
20260502004804 59 96 0.0 0.0 0.00 0.00 0.00 86 1012.6
20260502003805 60 96 0.0 0.0 0.00 0.00 0.00 86 1012.5
20260502003304 60 96 0.0 0.0 0.00 0.00 0.00 86 1012.5
20260502001804 60 96 0.0 0.0 0.00 0.00 0.00 85 1012.3
20260502000804 61 96 0.0 0.0 0.00 0.00 0.00 84 1012.1
20260502000303 61 96 0.0 0.0 0.00 0.00 0.00 83 1011.9
20260501234803 61 96 0.0 0.0 0.00 0.00 0.00 82 1011.8
20260501234304 61 96 0.0 0.0 0.00 0.00 0.00 81 1011.9
20260501233803 61 96 0.0 0.0 0.00 0.00 0.00 81 1011.9
20260501233304 61 96 0.0 0.0 0.00 0.00 0.00 80 1011.9
20260501231804 62 96 0.0 0.0 0.00 0.00 0.00 79 1011.8
20260501231304 62 96 0.0 0.0 0.00 0.00 0.00 80 1011.8
20260501230303 63 96 0.0 0.0 0.00 0.00 0.00 79 1012.1
20260501224804 63 275 0.0 0.0 0.00 0.00 0.00 75 1011.7